VU3KEB-13 Weather Reports


time (UTC)temp
C
wind
direction
speed
KPH
gust
KPH
rain 1hr
cm
rain 24hr
cm
rain mn
cm
humidity
%
barometer
mb
20260504211948 33 0 0.0 0.0 0.00 0.00 0.00 43 920.0
20260504211448 33 0 0.0 0.0 0.00 0.00 0.00 43 920.1
20260504210948 33 0 0.0 0.0 0.00 0.00 0.00 43 920.2
20260504210448 33 0 0.0 0.0 0.00 0.00 0.00 43 920.4
20260504205947 33 0 0.0 0.0 0.00 0.00 0.00 43 920.4
20260504205445 33 0 0.0 0.0 0.00 0.00 0.00 43 920.3
20260504204944 33 0 0.0 0.0 0.00 0.00 0.00 43 920.1
20260504204443 33 0 0.0 0.0 0.00 0.00 0.00 43 920.0
20260504203943 33 0 0.0 0.0 0.00 0.00 0.00 43 919.9
20260504203441 33 0 0.0 0.0 0.00 0.00 0.00 43 919.9
20260504202940 33 0 0.0 0.0 0.00 0.00 0.00 43 919.8
20260504202440 33 0 0.0 0.0 0.00 0.00 0.00 43 919.7
20260504201939 33 0 0.0 0.0 0.00 0.00 0.00 43 919.6
20260504201439 33 0 0.0 0.0 0.00 0.00 0.00 43 919.6
20260504200938 33 0 0.0 0.0 0.00 0.00 0.00 43 919.5
20260504200438 33 0 0.0 0.0 0.00 0.00 0.00 43 919.5
20260504195938 33 0 0.0 0.0 0.00 0.00 0.00 43 919.5
20260504195437 33 0 0.0 0.0 0.00 0.00 0.00 43 919.6
20260504194936 33 0 0.0 0.0 0.00 0.00 0.00 43 919.7
20260504194436 33 0 0.0 0.0 0.00 0.00 0.00 43 919.9
20260504193935 33 0 0.0 0.0 0.00 0.00 0.00 43 919.9
20260504193434 33 0 0.0 0.0 0.00 0.00 0.00 43 920.0
20260504192933 33 0 0.0 0.0 0.00 0.00 0.00 43 920.0
20260504192432 33 0 0.0 0.0 0.00 0.00 0.00 43 920.0
20260504191931 33 0 0.0 0.0 0.00 0.00 0.00 43 920.0
20260504191430 33 0 0.0 0.0 0.00 0.00 0.00 43 920.2
20260504190930 33 0 0.0 0.0 0.00 0.00 0.00 43 920.2
20260504190429 33 0 0.0 0.0 0.00 0.00 0.00 43 920.2
20260504185928 33 0 0.0 0.0 0.00 0.00 0.00 43 920.2
20260504185428 33 0 0.0 0.0 0.00 0.00 0.00 43 920.2
20260504184928 33 0 0.0 0.0 0.00 0.00 0.00 43 920.2
20260504184428 33 0 0.0 0.0 0.00 0.00 0.00 43 920.2
20260504183928 33 0 0.0 0.0 0.00 0.00 0.00 43 920.3
20260504183428 33 0 0.0 0.0 0.00 0.00 0.00 43 920.5
20260504182928 33 0 0.0 0.0 0.00 0.00 0.00 43 920.6
20260504182428 33 0 0.0 0.0 0.00 0.00 0.00 42 920.7
20260504181928 33 0 0.0 0.0 0.00 0.00 0.00 42 920.7
20260504181428 33 0 0.0 0.0 0.00 0.00 0.00 42 920.8
20260504180928 33 0 0.0 0.0 0.00 0.00 0.00 42 920.8
20260504180428 34 0 0.0 0.0 0.00 0.00 0.00 42 920.9
20260504175928 33 0 0.0 0.0 0.00 0.00 0.00 42 920.9
20260504175428 33 0 0.0 0.0 0.00 0.00 0.00 42 920.8
20260504174928 33 0 0.0 0.0 0.00 0.00 0.00 42 920.8
20260504174428 33 0 0.0 0.0 0.00 0.00 0.00 42 920.9
20260504173928 33 0 0.0 0.0 0.00 0.00 0.00 42 920.9
20260504173428 33 0 0.0 0.0 0.00 0.00 0.00 42 920.8
20260504172928 33 0 0.0 0.0 0.00 0.00 0.00 42 920.8
20260504172428 33 0 0.0 0.0 0.00 0.00 0.00 42 920.9
20260504171928 33 0 0.0 0.0 0.00 0.00 0.00 42 920.9
20260504171428 33 0 0.0 0.0 0.00 0.00 0.00 42 920.7
20260504170928 33 0 0.0 0.0 0.00 0.00 0.00 42 920.4
20260504170428 33 0 0.0 0.0 0.00 0.00 0.00 42 920.3
20260504160419 34 0 0.0 0.0 0.00 0.00 0.00 41 920.1
20260504150909 34 0 0.0 0.0 0.00 0.00 0.00 41 920.0
20260504150408 34 0 0.0 0.0 0.00 0.00 0.00 41 919.9
20260504140908 34 0 0.0 0.0 0.00 0.00 0.00 40 919.2
20260504140408 34 0 0.0 0.0 0.00 0.00 0.00 40 919.2
20260504130406 34 0 0.0 0.0 0.00 0.00 0.00 38 917.9
20260504110357 34 0 0.0 0.0 0.00 0.00 0.00 37 916.4
20260504100347 33 0 0.0 0.0 0.00 0.00 0.00 40 916.9
20260504081846 34 0 0.0 0.0 0.00 0.00 0.00 36 918.2
20260504081346 34 0 0.0 0.0 0.00 0.00 0.00 36 918.3
20260504080846 33 0 0.0 0.0 0.00 0.00 0.00 37 918.5
20260504080346 34 0 0.0 0.0 0.00 0.00 0.00 37 918.7
20260504070346 33 0 0.0 0.0 0.00 0.00 0.00 39 920.2
20260504050345 33 0 0.0 0.0 0.00 0.00 0.00 44 921.6
20260504045844 33 0 0.0 0.0 0.00 0.00 0.00 44 921.6
20260504045343 33 0 0.0 0.0 0.00 0.00 0.00 45 921.7
20260504044842 33 0 0.0 0.0 0.00 0.00 0.00 45 921.7
20260504044342 33 0 0.0 0.0 0.00 0.00 0.00 45 921.6
20260504043841 33 0 0.0 0.0 0.00 0.00 0.00 45 921.7
20260504043340 33 0 0.0 0.0 0.00 0.00 0.00 45 921.7
20260504042839 33 0 0.0 0.0 0.00 0.00 0.00 45 921.7
20260504042338 33 0 0.0 0.0 0.00 0.00 0.00 46 921.8
20260504041837 33 0 0.0 0.0 0.00 0.00 0.00 46 921.8
20260504041336 33 0 0.0 0.0 0.00 0.00 0.00 46 921.7
20260504040835 33 0 0.0 0.0 0.00 0.00 0.00 46 921.8
20260504040334 33 0 0.0 0.0 0.00 0.00 0.00 46 921.8
20260504035833 33 0 0.0 0.0 0.00 0.00 0.00 46 921.8
20260504035332 33 0 0.0 0.0 0.00 0.00 0.00 46 921.8
20260504034832 33 0 0.0 0.0 0.00 0.00 0.00 46 921.8
20260504034331 33 0 0.0 0.0 0.00 0.00 0.00 46 921.7
20260504033830 33 0 0.0 0.0 0.00 0.00 0.00 47 921.7
20260504033329 33 0 0.0 0.0 0.00 0.00 0.00 47 921.6
20260504032828 33 0 0.0 0.0 0.00 0.00 0.00 47 921.6
20260504032327 33 0 0.0 0.0 0.00 0.00 0.00 47 921.6
20260504031826 33 0 0.0 0.0 0.00 0.00 0.00 47 921.6
20260504031326 33 0 0.0 0.0 0.00 0.00 0.00 47 921.5
20260504030826 33 0 0.0 0.0 0.00 0.00 0.00 47 921.4
20260504030326 33 0 0.0 0.0 0.00 0.00 0.00 47 921.5
20260504025826 33 0 0.0 0.0 0.00 0.00 0.00 47 921.5
20260504025326 33 0 0.0 0.0 0.00 0.00 0.00 47 921.5
20260504024826 33 0 0.0 0.0 0.00 0.00 0.00 47 921.4
20260504024326 33 0 0.0 0.0 0.00 0.00 0.00 47 921.2
20260504023826 33 0 0.0 0.0 0.00 0.00 0.00 46 921.2
20260504023326 33 0 0.0 0.0 0.00 0.00 0.00 47 921.1
20260504022825 33 0 0.0 0.0 0.00 0.00 0.00 47 921.1
20260504022325 33 0 0.0 0.0 0.00 0.00 0.00 46 921.2
20260504021826 33 0 0.0 0.0 0.00 0.00 0.00 46 921.3
20260504021325 33 0 0.0 0.0 0.00 0.00 0.00 46 921.2
20260504020825 33 0 0.0 0.0 0.00 0.00 0.00 45 921.2
20260504020325 33 0 0.0 0.0 0.00 0.00 0.00 45 921.1
20260504015825 33 0 0.0 0.0 0.00 0.00 0.00 45 921.0
20260504015325 33 0 0.0 0.0 0.00 0.00 0.00 45 920.9
20260504014825 33 0 0.0 0.0 0.00 0.00 0.00 45 920.9
20260504014325 33 0 0.0 0.0 0.00 0.00 0.00 44 920.8
20260504013825 33 0 0.0 0.0 0.00 0.00 0.00 44 920.8
20260504013325 33 0 0.0 0.0 0.00 0.00 0.00 44 920.9
20260504012825 33 0 0.0 0.0 0.00 0.00 0.00 44 920.9
20260504012324 33 0 0.0 0.0 0.00 0.00 0.00 44 920.8
20260504011824 33 0 0.0 0.0 0.00 0.00 0.00 44 920.9
20260504011323 33 0 0.0 0.0 0.00 0.00 0.00 45 920.9
20260504010823 33 0 0.0 0.0 0.00 0.00 0.00 46 920.9
20260504010322 33 0 0.0 0.0 0.00 0.00 0.00 46 921.1
20260504005821 33 0 0.0 0.0 0.00 0.00 0.00 46 921.0
20260504005321 33 0 0.0 0.0 0.00 0.00 0.00 46 921.0
20260504004820 33 0 0.0 0.0 0.00 0.00 0.00 46 920.9
20260504004319 33 0 0.0 0.0 0.00 0.00 0.00 46 921.1
20260504003818 33 0 0.0 0.0 0.00 0.00 0.00 46 921.1
20260504003317 33 0 0.0 0.0 0.00 0.00 0.00 46 921.0
20260504002816 33 0 0.0 0.0 0.00 0.00 0.00 47 921.0
20260504002315 33 0 0.0 0.0 0.00 0.00 0.00 47 920.9
20260504001814 33 0 0.0 0.0 0.00 0.00 0.00 47 920.7
20260504001313 33 0 0.0 0.0 0.00 0.00 0.00 47 920.8
20260504000813 33 0 0.0 0.0 0.00 0.00 0.00 47 920.7
20260504000312 33 0 0.0 0.0 0.00 0.00 0.00 47 920.5
20260503235811 33 0 0.0 0.0 0.00 0.00 0.00 47 920.3
20260503235310 33 0 0.0 0.0 0.00 0.00 0.00 47 920.3
20260503234809 33 0 0.0 0.0 0.00 0.00 0.00 47 920.3
20260503234308 33 0 0.0 0.0 0.00 0.00 0.00 47 920.3
20260503233807 33 0 0.0 0.0 0.00 0.00 0.00 47 920.4
20260503233306 33 0 0.0 0.0 0.00 0.00 0.00 47 920.3
20260503232806 33 0 0.0 0.0 0.00 0.00 0.00 47 920.1
20260503232306 33 0 0.0 0.0 0.00 0.00 0.00 47 920.0
20260503231806 33 0 0.0 0.0 0.00 0.00 0.00 47 920.0
20260503231306 33 0 0.0 0.0 0.00 0.00 0.00 47 920.0
20260503230806 33 0 0.0 0.0 0.00 0.00 0.00 47 920.1
20260503230306 33 0 0.0 0.0 0.00 0.00 0.00 47 920.1
20260503225806 33 0 0.0 0.0 0.00 0.00 0.00 47 920.0
20260503225306 34 0 0.0 0.0 0.00 0.00 0.00 47 919.9
20260503224806 33 0 0.0 0.0 0.00 0.00 0.00 47 919.8
20260503224306 33 0 0.0 0.0 0.00 0.00 0.00 47 919.6
20260503223806 33 0 0.0 0.0 0.00 0.00 0.00 47 919.6
20260503223306 33 0 0.0 0.0 0.00 0.00 0.00 46 919.5
20260503222806 33 0 0.0 0.0 0.00 0.00 0.00 46 919.4
20260503222305 33 0 0.0 0.0 0.00 0.00 0.00 46 919.4
20260503221805 33 0 0.0 0.0 0.00 0.00 0.00 46 919.3
20260503221305 33 0 0.0 0.0 0.00 0.00 0.00 46 919.2
20260503220805 33 0 0.0 0.0 0.00 0.00 0.00 46 919.0
20260503220305 33 0 0.0 0.0 0.00 0.00 0.00 46 919.0
20260503215805 34 0 0.0 0.0 0.00 0.00 0.00 46 919.1
20260503215305 34 0 0.0 0.0 0.00 0.00 0.00 46 919.0
20260503214805 33 0 0.0 0.0 0.00 0.00 0.00 46 918.9
20260503214305 33 0 0.0 0.0 0.00 0.00 0.00 46 918.7
20260503213805 34 0 0.0 0.0 0.00 0.00 0.00 46 918.7
20260503213305 34 0 0.0 0.0 0.00 0.00 0.00 46 918.6
20260503212805 34 0 0.0 0.0 0.00 0.00 0.00 46 918.7
20260503212305 34 0 0.0 0.0 0.00 0.00 0.00 46 918.9